Weather History for Kremmling, CO

Change the Weather History Date:

Sunday, August 11, 2013

  Actual Average (KEGE) Record (KEGE)
Temperature  
Mean Temperature 62 °F -  
Max Temperature 77 °F 84 °F 94 °F (1972)
Min Temperature 46 °F 46 °F 35 °F (1951)
Degree Days  
Heating Degree Days 4    
Growing Degree Days 12 (Base 50)    
Moisture  
Dew Point 37 °F    
Average Humidity 44    
Maximum Humidity 81    
Minimum Humidity 18    
Precipitation  
Precipitation 0.00 in - - ()
Sea Level Pressure  
Sea Level Pressure 30.38 in    
Wind  
Wind Speed 3 mph (NW)    
Max Wind Speed 14 mph    
Max Gust Speed 18 mph    
Visibility 10 miles    
Events Rain , Thunderstorm    
Averages and records for this station are not official NWS values.
T = Trace of Precipitation, MM = Missing Value Source: NWS Daily Summary

Daily Weather History Graph

Daily Weather History Graph

Search for Another Location

Airport:

Trip Planner

Search our weather history database for the weather conditions in past years. The results will help you decide how hot, cold, wet, or windy it might be!

Date:

Astronomy

Aug. 11, 2013 Rise Set
Actual Time 6:13 AM MDT 8:07 PM MDT
Civil Twilight 5:44 AM MDT 8:36 PM MDT
Nautical Twilight 5:08 AM MDT 9:11 PM MDT
Astronomical Twilight 4:29 AM MDT 9:50 PM MDT
Moon 11:04 AM MDT (8/11) 10:24 PM MDT (8/11)
Length of Visible Light 14h 52m
Length of Day
13h 53m
Waxing Crescent, 22% of the Moon is Illuminated
Aug 11
Waxing Crescent
Aug 14
First Quarter
Aug 20
Full
Aug 28
Last Quarter
Sep 5
New

Hourly Weather History & Observations

Time (MDT) Temp. Windchill Dew Point Humidity Pressure Visibility Wind Dir Wind Speed Gust Speed Precip Events Conditions
12:16 AM 51.8 °F - 37.4 °F 58% 30.41 in 10.0 mi East 5.8 mph - N/A   Scattered Clouds
12:36 AM 53.6 °F - 39.2 °F 58% 30.42 in 10.0 mi East 4.6 mph - N/A   Mostly Cloudy
12:56 AM 51.8 °F - 37.4 °F 58% 30.42 in 10.0 mi ESE 3.5 mph - N/A   Mostly Cloudy
1:16 AM 51.8 °F - 37.4 °F 58% 30.42 in 10.0 mi ESE 8.1 mph - N/A   Overcast
1:36 AM 53.6 °F - 37.4 °F 54% 30.42 in 10.0 mi East 4.6 mph - N/A   Overcast
1:56 AM 53.6 °F - 41.0 °F 62% 30.42 in 10.0 mi Calm Calm - N/A   Overcast
2:16 AM 51.8 °F - 39.2 °F 62% 30.42 in 10.0 mi Calm Calm - N/A   Overcast
2:36 AM 51.8 °F - 41.0 °F 67% 30.42 in 10.0 mi Calm Calm - N/A   Overcast
2:56 AM 50.0 °F - 39.2 °F 66% 30.42 in 10.0 mi Calm Calm - N/A   Mostly Cloudy
3:16 AM 50.0 °F - 39.2 °F 66% 30.42 in 10.0 mi Calm Calm - N/A   Scattered Clouds
3:36 AM 50.0 °F - 39.2 °F 66% 30.42 in 10.0 mi ESE 3.5 mph - N/A   Mostly Cloudy
3:56 AM 50.0 °F - 39.2 °F 66% 30.42 in 10.0 mi Calm Calm - N/A   Overcast
4:15 AM 50.0 °F - 41.0 °F 71% 30.42 in 10.0 mi Calm Calm - N/A   Overcast
4:36 AM 50.0 °F - 41.0 °F 71% 30.42 in 10.0 mi Calm Calm - N/A   Overcast
4:56 AM 50.0 °F - 41.0 °F 71% 30.42 in 10.0 mi Calm Calm - N/A   Overcast
5:16 AM 50.0 °F - 41.0 °F 71% 30.42 in 10.0 mi Calm Calm - N/A   Overcast
5:36 AM 50.0 °F - 41.0 °F 71% 30.43 in 10.0 mi Calm Calm - N/A   Overcast
5:56 AM 50.0 °F - 41.0 °F 71% 30.43 in 10.0 mi Calm Calm - N/A   Mostly Cloudy
6:16 AM 46.4 °F - 41.0 °F 81% 30.44 in 10.0 mi Calm Calm - N/A   Scattered Clouds
6:36 AM 46.4 °F - 39.2 °F 76% 30.44 in 10.0 mi Calm Calm - N/A   Scattered Clouds
6:56 AM 46.4 °F 45.2 °F 41.0 °F 81% 30.44 in 10.0 mi SW 3.5 mph - N/A   Scattered Clouds
7:16 AM 46.4 °F - 41.0 °F 81% 30.45 in 10.0 mi Calm Calm - N/A   Clear
7:36 AM 50.0 °F - 41.0 °F 71% 30.45 in 10.0 mi Calm Calm - N/A   Clear
7:56 AM 51.8 °F - 41.0 °F 67% 30.45 in 10.0 mi Calm Calm - N/A   Clear
8:16 AM 53.6 °F - 41.0 °F 62% 30.45 in 10.0 mi Calm Calm - N/A   Clear
8:36 AM 53.6 °F - 41.0 °F 62% 30.45 in 10.0 mi Calm Calm - N/A   Clear
8:56 AM 55.4 °F - 41.0 °F 58% 30.45 in 10.0 mi Calm Calm - N/A   Clear
9:16 AM 57.2 °F - 41.0 °F 55% 30.44 in 10.0 mi Calm Calm - N/A   Clear
9:36 AM 60.8 °F - 39.2 °F 45% 30.44 in 10.0 mi Calm Calm - N/A   Clear
9:56 AM 60.8 °F - 39.2 °F 45% 30.43 in 10.0 mi Calm Calm - N/A   Clear
10:16 AM 64.4 °F - 37.4 °F 37% 30.42 in 10.0 mi Calm Calm - N/A   Clear
10:35 AM 66.2 °F - 37.4 °F 35% 30.42 in 10.0 mi Calm Calm - N/A   Clear
10:56 AM 69.8 °F - 39.2 °F 33% 30.42 in 10.0 mi Calm Calm - N/A   Clear
11:16 AM 69.8 °F - 35.6 °F 28% 30.41 in 10.0 mi Calm Calm - N/A   Clear
11:35 AM 69.8 °F - 33.8 °F 27% 30.40 in 10.0 mi Calm Calm - N/A   Clear
11:56 AM 71.6 °F - 33.8 °F 25% 30.39 in 10.0 mi Calm Calm - N/A   Clear
12:14 PM 73.4 °F - 32.0 °F 22% 30.38 in 10.0 mi NE 3.5 mph - N/A   Clear
12:35 PM 73.4 °F - 32.0 °F 22% 30.38 in 10.0 mi SSW 6.9 mph - N/A   Clear
12:56 PM 73.4 °F - 32.0 °F 22% 30.37 in 10.0 mi SSW 5.8 mph - N/A   Scattered Clouds
1:16 PM 75.2 °F - 32.0 °F 21% 30.35 in 10.0 mi Calm Calm - N/A   Clear
1:36 PM 77.0 °F - 32.0 °F 19% 30.34 in 10.0 mi West 5.8 mph - N/A   Clear
1:56 PM 77.0 °F - 32.0 °F 19% 30.34 in 10.0 mi NE 3.5 mph - N/A   Clear
2:16 PM 75.2 °F - 33.8 °F 22% 30.33 in 10.0 mi North 13.8 mph 17.3 mph N/A   Mostly Cloudy
2:36 PM 69.8 °F - 37.4 °F 31% 30.34 in 10.0 mi NNW 10.4 mph 18.4 mph N/A Rain Light Rain
2:56 PM 71.6 °F - 41.0 °F 33% 30.33 in 10.0 mi North 4.6 mph - N/A Rain , Thunderstorm Light Thunderstorms and Rain
3:16 PM 69.8 °F - 33.8 °F 27% 30.34 in 10.0 mi NW 9.2 mph - N/A   Overcast
3:36 PM 69.8 °F - 35.6 °F 28% 30.34 in 10.0 mi North 3.5 mph - N/A Thunderstorm Unknown
3:56 PM 69.8 °F - 35.6 °F 28% 30.33 in 10.0 mi Calm Calm - N/A   Mostly Cloudy
4:16 PM 77.0 °F - 30.2 °F 18% 30.32 in 10.0 mi Calm Calm - N/A   Scattered Clouds
4:36 PM 75.2 °F - 28.4 °F 18% 30.31 in 10.0 mi Calm Calm - N/A   Clear
4:56 PM 73.4 °F - 28.4 °F 19% 30.31 in 10.0 mi Calm Calm - N/A   Clear
5:16 PM 73.4 °F - 32.0 °F 22% 30.31 in 10.0 mi WNW 5.8 mph - N/A   Clear
5:36 PM 73.4 °F - 32.0 °F 22% 30.31 in 10.0 mi WNW 5.8 mph - N/A   Clear
5:56 PM 69.8 °F - 32.0 °F 25% 30.31 in 10.0 mi West 8.1 mph - N/A   Clear
6:15 PM 69.8 °F - 33.8 °F 27% 30.30 in 10.0 mi WNW 5.8 mph - N/A   Clear
6:36 PM 69.8 °F - 33.8 °F 27% 30.30 in 10.0 mi West 5.8 mph - N/A   Clear
6:56 PM 71.6 °F - 33.8 °F 25% 30.30 in 10.0 mi West 4.6 mph - N/A Thunderstorm Clear
7:16 PM 71.6 °F - 32.0 °F 23% 30.30 in 10.0 mi WSW 4.6 mph - N/A   Clear
7:36 PM 69.8 °F - 32.0 °F 25% 30.31 in 10.0 mi Calm Calm - N/A   Clear
7:56 PM 69.8 °F - 32.0 °F 25% 30.31 in 10.0 mi West 3.5 mph - N/A   Scattered Clouds
8:15 PM 66.2 °F - 33.8 °F 30% 30.32 in 10.0 mi Calm Calm - N/A   Mostly Cloudy
8:36 PM 64.4 °F - 32.0 °F 30% 30.32 in 10.0 mi Calm Calm - N/A Thunderstorm Overcast
8:56 PM 64.4 °F - 33.8 °F 32% 30.33 in 10.0 mi North 5.8 mph - N/A   Mostly Cloudy
9:16 PM 60.8 °F - 35.6 °F 39% 30.34 in 10.0 mi NNE 4.6 mph - N/A   Mostly Cloudy
9:36 PM 60.8 °F - 35.6 °F 39% 30.35 in 10.0 mi Calm Calm - N/A Thunderstorm Scattered Clouds
9:56 PM 59.0 °F - 35.6 °F 42% 30.36 in 10.0 mi South 3.5 mph - N/A   Clear